GW5716 Weather Reports


time (UTC)temp
F
wind
direction
speed
knots
gust
knots
rain 1hr
in
rain 24hr
in
rain mn
in
humidity
%
barometer
mb
20260508013037 64 268 3.5 7.0 0.00 0.00 0.00 90 1014.9
20260508012025 64 275 4.3 7.0 0.00 0.00 0.00 89 1014.8
20260508011031 65 272 6.1 8.7 0.00 0.00 0.00 88 1014.9
20260508010036 65 264 5.2 8.7 0.00 0.00 0.00 88 1014.9
20260508005023 65 272 5.2 7.8 0.00 0.00 0.00 89 1014.9
20260508004040 65 267 6.1 7.8 0.00 0.00 0.00 89 1014.8
20260508003027 64 276 5.2 7.8 0.00 0.00 0.00 90 1014.8
20260508002040 64 293 5.2 8.7 0.00 0.00 0.00 90 1014.7
20260508001028 65 278 6.1 8.7 0.00 0.00 0.00 89 1014.7
20260508000037 65 285 7.0 9.6 0.00 0.00 0.00 89 1014.8
20260507235024 65 288 7.0 9.6 0.00 0.00 0.00 88 1014.8
20260507234026 65 287 6.1 9.6 0.00 0.00 0.00 88 1014.8
20260507233035 65 276 7.0 10.4 0.00 0.00 0.00 88 1014.6
20260507232024 66 303 5.2 9.6 0.00 0.00 0.00 87 1014.6
20260507231032 67 289 6.1 8.7 0.00 0.00 0.00 86 1014.8
20260507230024 67 285 5.2 7.8 0.00 0.00 0.00 85 1014.7
20260507225030 66 265 5.2 7.8 0.00 0.00 0.00 86 1014.9
20260507223037 65 227 5.2 9.6 0.00 0.00 0.00 89 1014.9
20260507221020 64 210 7.0 9.6 0.00 0.00 0.00 88 1015.0
20260507215027 65 222 7.8 9.6 0.00 0.00 0.00 88 1015.4
20260507214027 64 211 7.0 10.4 0.00 0.00 0.00 89 1015.6
20260507213035 65 221 7.8 10.4 0.00 0.00 0.00 87 1015.8
20260507212022 64 227 7.0 11.3 0.00 0.00 0.00 89 1015.9
20260507210024 64 255 8.7 12.2 0.00 0.00 0.00 89 1016.0
20260507205029 64 238 9.6 11.3 0.00 0.00 0.00 88 1016.2
20260507203036 64 228 8.7 11.3 0.00 0.00 0.00 89 1016.2
20260507202023 64 219 7.8 11.3 0.00 0.00 0.00 87 1016.1
20260507201034 63 227 6.1 10.4 0.00 0.00 0.00 87 1016.2
20260507200023 64 240 7.8 9.6 0.00 0.00 0.00 87 1016.3
20260507195031 64 204 7.0 9.6 0.00 0.00 0.00 87 1016.5
20260507194029 64 245 7.8 11.3 0.00 0.00 0.00 87 1016.5
20260507193021 64 228 7.0 11.3 0.00 0.00 0.00 88 1016.6
20260507192030 64 241 7.0 10.4 0.00 0.00 0.00 88 1016.7
20260507191038 64 198 7.8 11.3 0.00 0.00 0.00 88 1016.7
20260507190022 63 207 7.8 10.4 0.00 0.00 0.00 87 1016.8
20260507185028 63 230 7.8 10.4 0.00 0.00 0.00 87 1016.9
20260507181038 63 203 5.2 10.4 0.00 0.00 0.00 88 1017.0
20260507180026 64 227 6.1 7.8 0.00 0.00 0.00 88 1017.1
20260507175031 63 221 6.1 7.8 0.00 0.00 0.00 89 1017.1
20260507174031 63 238 6.1 8.7 0.00 0.00 0.00 89 1017.1
20260507173025 63 237 7.0 8.7 0.00 0.00 0.00 89 1017.2
20260507172034 63 227 5.2 9.6 0.00 0.00 0.00 89 1017.2
20260507171021 63 221 5.2 7.8 0.00 0.00 0.00 90 1017.2
20260507170029 62 243 6.1 7.8 0.00 0.00 0.00 90 1017.3
20260507165038 62 219 5.2 7.0 0.00 0.00 0.00 90 1017.3
20260507164035 62 222 4.3 7.0 0.00 0.00 0.00 90 1017.2
20260507163022 62 249 5.2 7.0 0.00 0.00 0.00 90 1017.2
20260507162028 62 231 4.3 7.0 0.00 0.00 0.00 90 1017.3
20260507160036 62 231 4.3 6.1 0.00 0.00 0.00 92 1017.3
20260507155020 61 225 4.3 7.0 0.00 0.00 0.00 92 1017.4
20260507154037 61 193 1.7 5.2 0.00 0.00 0.00 93 1017.3
20260507153028 61 310 3.5 5.2 0.00 0.00 0.00 93 1017.4
20260507152036 61 310 1.7 5.2 0.00 0.00 0.00 93 1017.4
20260507151022 61 310 2.6 3.5 0.00 0.00 0.00 94 1017.4
20260507150029 60 310 0.0 0.0 0.00 0.00 0.00 94 1017.4
20260507145039 60 310 0.0 2.6 0.00 0.00 0.00 94 1017.4
20260507144034 60 310 1.7 3.5 0.00 0.00 0.00 94 1017.2
20260507143022 60 310 2.6 4.3 0.00 0.00 0.00 95 1017.3
20260507142029 60 310 0.0 0.0 0.00 0.00 0.00 95 1017.1
20260507140034 59 310 0.0 0.0 0.00 0.00 0.00 95 1016.9
20260507134039 58 310 0.0 0.0 0.00 0.00 0.00 95 1016.6
20260507133027 58 310 0.0 0.0 0.00 0.00 0.00 95 1016.6
20260507131025 57 310 0.0 0.0 0.00 0.00 0.00 94 1016.5
20260507130022 57 310 0.0 0.0 0.00 0.00 0.00 94 1016.2
20260507125028 57 310 0.0 0.0 0.00 0.00 0.00 94 1016.2
20260507124025 57 311 0.0 0.0 0.00 0.00 0.00 94 1016.3
20260507123036 57 310 0.0 0.0 0.00 0.00 0.00 94 1016.2
20260507122022 57 310 0.0 0.0 0.00 0.00 0.00 94 1016.2
20260507121030 57 310 0.0 0.0 0.00 0.00 0.00 94 1016.3
20260507120037 57 310 0.0 0.0 0.00 0.00 0.00 94 1016.4
20260507115027 57 310 0.0 0.0 0.00 0.00 0.00 94 1016.4
20260507114023 58 310 0.0 0.0 0.00 0.00 0.00 95 1016.4
20260507113030 58 310 0.0 0.0 0.00 0.00 0.00 95 1016.5
20260507112036 58 310 0.0 0.0 0.00 0.00 0.00 95 1016.5
20260507111028 58 310 0.0 0.0 0.00 0.00 0.00 95 1016.6
20260507110034 58 310 0.0 0.0 0.00 0.00 0.00 95 1016.5
20260507105020 58 310 0.0 0.0 0.00 0.00 0.00 95 1016.7
20260507104036 58 310 0.0 0.0 0.00 0.00 0.00 95 1016.7
20260507103028 58 310 0.0 0.0 0.00 0.00 0.00 95 1016.7
20260507102036 58 310 0.0 0.0 0.00 0.00 0.00 95 1016.7
20260507101022 58 310 0.0 0.0 0.00 0.00 0.00 95 1016.7
20260507100020 58 310 0.0 0.0 0.00 0.00 0.00 95 1016.7
20260507095029 59 310 0.0 0.0 0.00 0.00 0.00 94 1016.6
20260507094027 59 310 0.0 0.0 0.00 0.00 0.00 95 1016.8
20260507093033 59 310 0.0 0.0 0.00 0.00 0.00 95 1016.9
20260507092021 59 310 0.0 0.0 0.00 0.00 0.00 94 1017.1
20260507091032 59 310 0.0 0.0 0.00 0.00 0.00 94 1017.1
20260507090039 59 310 0.0 0.0 0.00 0.00 0.00 94 1017.1
20260507085024 59 310 0.0 0.0 0.00 0.00 0.00 94 1017.3
20260507084022 60 310 0.0 0.0 0.00 0.00 0.00 94 1017.6
20260507083033 60 310 0.0 0.0 0.00 0.00 0.00 94 1017.6
20260507082021 60 310 0.0 0.0 0.00 0.00 0.00 94 1017.5
20260507081028 60 310 0.0 0.0 0.00 0.00 0.00 94 1017.7
20260507080035 60 310 0.0 0.0 0.00 0.00 0.00 94 1017.7
20260507075026 60 310 0.0 0.0 0.00 0.00 0.00 94 1017.7
20260507072024 61 310 2.6 4.3 0.00 0.00 0.00 93 1017.6
20260507071035 61 310 0.9 3.5 0.00 0.00 0.00 93 1017.6
20260507070034 61 310 0.9 4.3 0.00 0.00 0.00 93 1017.8
20260507063030 61 324 4.3 7.0 0.00 0.00 0.00 93 1018.1
20260507062021 61 328 0.9 5.2 0.00 0.00 0.00 92 1018.0
20260507061028 61 328 0.0 5.2 0.00 0.00 0.00 92 1018.0
20260507060035 61 328 2.6 5.2 0.00 0.00 0.00 92 1017.9
20260507054042 61 328 3.5 8.7 0.00 0.00 0.00 92 1018.0
20260507053020 61 4 3.5 7.8 0.00 0.00 0.00 92 1017.7
20260507052042 61 336 4.3 7.8 0.00 0.00 0.00 91 1017.7
20260507051047 61 339 4.3 7.0 0.00 0.00 0.00 91 1017.7
20260507050037 62 332 4.3 5.2 0.00 0.00 0.00 91 1017.7
20260507045046 62 332 3.5 6.1 0.00 0.00 0.00 91 1017.6
20260507044046 62 331 3.5 6.1 0.00 0.00 0.00 90 1017.6
20260507043024 62 331 3.5 7.0 0.00 0.00 0.00 90 1017.5
20260507042040 62 332 3.5 6.1 0.00 0.00 0.00 89 1017.4
20260507041033 62 333 4.3 7.0 0.00 0.00 0.00 89 1017.4
20260507040024 62 307 4.3 7.8 0.00 0.00 0.00 89 1017.4
20260507035046 62 330 3.5 5.2 0.00 0.00 0.00 89 1017.3
20260507034042 62 312 3.5 7.0 0.00 0.00 0.00 89 1017.2
20260507033024 62 326 2.6 7.0 0.00 0.00 0.00 89 1017.2
20260507032046 62 316 2.6 8.7 0.00 0.00 0.00 89 1017.1
20260507031038 62 340 4.3 9.6 0.00 0.00 0.00 89 1017.0
20260507030049 62 330 2.6 7.8 0.00 0.00 0.00 89 1016.9
20260507024040 62 295 7.0 9.6 0.00 0.00 0.00 88 1016.8
20260507023019 63 317 6.1 10.4 0.00 0.00 0.00 87 1016.8
20260507022041 63 313 5.2 8.7 0.00 0.00 0.00 86 1016.6
20260507020037 63 287 7.8 9.6 0.00 0.00 0.00 89 1016.6
20260507015047 63 4 6.1 11.3 0.00 0.00 0.00 88 1016.6
20260507014046 63 306 7.8 11.3 0.00 0.00 0.00 87 1016.5